This is the latest recevied weather packets stored in our database for station/object SV3CQY. If no packets are shown the sender has not sent any weather packets the latest 10 day(s).
| Time | Temp. | Humidity | Pressure | Rain* | Wind** | Luminosity | Snow |
|---|---|---|---|---|---|---|---|
| 1777506331 | 12.78° C | 68% | 1015.5 hPa | 0 mm | - | - | - |
| 1777503629 | 13.33° C | 70% | 1015.9 hPa | 0 mm | - | - | - |
| 1777502109 | 13.89° C | 68% | 1016.1 hPa | 0 mm | - | - | - |
| 1777501508 | 13.89° C | 69% | 1016.1 hPa | 0 mm | - | - | - |
| 1777500613 | 14.44° C | 72% | 1016.1 hPa | 0 mm | - | - | - |
| 1777498810 | 14.44° C | 65% | 1015.9 hPa | 0 mm | - | - | - |
| 1777497610 | 15° C | 61% | 1015.8 hPa | 0 mm | - | - | - |
| 1777491046 | 18.33° C | 66% | 1015.3 hPa | 0 mm | - | - | - |
| 1777490128 | 18.89° C | 63% | 1015.2 hPa | 0 mm | - | - | - |
| 1777489229 | 19.44° C | 61% | 1015 hPa | 0 mm | - | - | - |
| 1777488910 | 20° C | 57% | 1015 hPa | 0 mm | - | - | - |
| 1777488617 | 22.22° C | 51% | 1014.8 hPa | 0 mm | - | - | - |
| 1777484408 | 22.22° C | 30% | 1014.2 hPa | 0 mm | - | - | - |
| 1777480812 | 23.89° C | 27% | 1013.6 hPa | 0 mm | - | - | - |
| 1777479327 | 24.44° C | 27% | 1013.6 hPa | 0 mm | - | - | - |
| 1777479010 | 24.44° C | 27% | 1013.6 hPa | 0 mm | - | - | - |
| 1777478110 | 25° C | 25% | 1013.6 hPa | 0 mm | - | - | - |
| 1777474211 | 26.67° C | 24% | 1013.7 hPa | 0 mm | - | - | - |
| 1777473311 | 26.67° C | 26% | 1013.7 hPa | 0 mm | - | - | - |
| 1777472126 | 26.67° C | 23% | 1013.8 hPa | 0 mm | - | - | - |
| 1777471809 | 26.67° C | 22% | 1013.8 hPa | 0 mm | - | - | - |
| 1777471511 | 26.67° C | 23% | 1013.8 hPa | 0 mm | - | - | - |
| 1777469711 | 26.67° C | 22% | 1013.7 hPa | 0 mm | - | - | - |
| 1777468812 | 26.67° C | 24% | 1013.7 hPa | 0 mm | - | - | - |
| 1777464309 | 27.22° C | 25% | 1014.2 hPa | 0 mm | - | - | - |
* Rain latest hour (hover to see other rain measurements)
** Current wind speed in m/s (hover to see current wind gust speed)